TimeMDT,TemperatureF,Dew PointF,Humidity,Sea Level PressureIn,VisibilityMPH,Wind Direction,Wind SpeedMPH,Gust SpeedMPH,PrecipitationIn,Events,Conditions,WindDirDegrees,DateUTC
12:00 AM,17,15,85,29.53,,West,34.5,,,,,260,2013-09-06 06:00:00
12:00 AM,73.4,57.2,57,29.91,9.0,SSW,10.4,-,N/A,,Overcast,200,2013-09-06 06:00:00
1:00 AM,71.6,57.2,60,29.90,9.0,SW,10.4,-,N/A,,Overcast,230,2013-09-06 07:00:00
1:56 AM,71.6,59.0,64,29.90,9.0,WSW,8.1,-,N/A,Rain,Light Rain,240,2013-09-06 07:56:00
2:00 AM,71.6,59.0,64,29.89,9.0,WSW,6.9,-,N/A,Rain,Light Rain,240,2013-09-06 08:00:00
2:23 AM,69.8,59.0,68,29.90,9.0,Variable,2.3,-,N/A,,Overcast,0,2013-09-06 08:23:00
2:47 AM,69.8,60.8,73,29.91,9.0,WSW,5.8,-,N/A,Rain,Light Rain,250,2013-09-06 08:47:00
3:00 AM,69.8,60.8,73,29.90,9.0,SW,5.8,-,N/A,Rain,Light Rain,230,2013-09-06 09:00:00
3:05 AM,69.8,60.8,73,29.90,9.0,WSW,4.6,-,N/A,,Overcast,240,2013-09-06 09:05:00
3:30 AM,71.6,59.0,64,29.89,9.0,WNW,11.5,-,N/A,,Overcast,290,2013-09-06 09:30:00
4:00 AM,71.6,59.0,64,29.90,9.0,Variable,4.6,-,N/A,,Overcast,0,2013-09-06 10:00:00
4:15 AM,69.8,59.0,68,29.91,9.0,North,10.4,-,N/A,Rain,Light Rain,350,2013-09-06 10:15:00
4:29 AM,69.8,59.0,68,29.91,9.0,NNW,8.1,-,N/A,,Overcast,340,2013-09-06 10:29:00
5:00 AM,68.0,57.2,68,29.93,9.0,ENE,4.6,-,N/A,,Overcast,70,2013-09-06 11:00:00
6:00 AM,17,15,85,29.60,,West,23.0,,,,,260,2013-09-06 12:00:00
6:00 AM,68.0,59.0,73,29.94,9.0,NNE,8.1,-,N/A,,Overcast,20,2013-09-06 12:00:00
7:00 AM,66.2,57.2,73,29.97,30.0,ENE,5.8,-,N/A,,Mostly Cloudy,70,2013-09-06 13:00:00
8:00 AM,66.2,59.0,78,29.99,30.0,North,8.1,-,N/A,,Mostly Cloudy,10,2013-09-06 14:00:00
9:00 AM,69.8,57.2,64,30.00,30.0,NE,11.5,18.4,N/A,,Partly Cloudy,40,2013-09-06 15:00:00
10:00 AM,71.6,55.4,57,30.01,30.0,NE,11.5,19.6,N/A,,Partly Cloudy,50,2013-09-06 16:00:00
11:00 AM,75.2,55.4,50,30.02,30.0,ENE,9.2,-,N/A,,Partly Cloudy,70,2013-09-06 17:00:00
12:00 PM,18,14,79,29.65,,West,15.0,,,,,260,2013-09-06 18:00:00
12:00 PM,80.6,53.6,39,30.01,30.0,NNE,13.8,-,N/A,,Partly Cloudy,20,2013-09-06 18:00:00
1:00 PM,82.4,51.8,35,30.00,30.0,NNE,11.5,-,N/A,,Partly Cloudy,30,2013-09-06 19:00:00
2:00 PM,84.2,50.0,30,29.99,30.0,NNE,15.0,-,N/A,,Partly Cloudy,20,2013-09-06 20:00:00
3:00 PM,86.0,51.8,31,29.99,30.0,NNE,15.0,-,N/A,,Scattered Clouds,20,2013-09-06 21:00:00
4:00 PM,86.0,51.8,31,29.97,30.0,NNE,16.1,24.2,N/A,,Mostly Cloudy,30,2013-09-06 22:00:00
5:00 PM,82.4,50.0,32,29.97,30.0,NE,12.7,23.0,N/A,,Mostly Cloudy,50,2013-09-06 23:00:00
6:00 PM,16,15,91,29.68,,NW,4.6,,,,,320,2013-09-07 00:00:00
6:00 PM,82.4,48.2,30,29.96,30.0,NE,16.1,24.2,N/A,,Mostly Cloudy,50,2013-09-07 00:00:00
7:00 PM,78.8,48.2,34,29.96,15.0,ENE,15.0,24.2,N/A,,Overcast,60,2013-09-07 01:00:00
8:00 PM,77.0,48.2,36,29.99,15.0,NNE,13.8,21.9,N/A,,Overcast,30,2013-09-07 02:00:00
8:13 PM,77.0,48.2,36,29.99,15.0,NNE,16.1,24.2,N/A,Thunderstorm,Thunderstorm,20,2013-09-07 02:13:00
8:49 PM,75.2,44.6,34,30.05,10.0,North,11.5,23.0,N/A,,Overcast,350,2013-09-07 02:49:00
9:00 PM,73.4,48.2,41,30.10,10.0,West,5.8,-,N/A,,Overcast,270,2013-09-07 03:00:00
9:55 PM,60.8,57.2,88,30.16,9.0,North,13.8,20.7,N/A,Rain,Light Rain,10,2013-09-07 03:55:00
10:00 PM,60.8,57.2,88,30.16,9.0,North,12.7,20.7,N/A,Rain,Light Rain,10,2013-09-07 04:00:00
10:02 PM,60.8,57.2,88,30.16,9.0,North,11.5,20.7,N/A,Rain-Thunderstorm,Rain,360,2013-09-07 04:02:00
10:18 PM,60.8,57.2,88,30.16,9.0,North,12.7,-,N/A,Rain,Rain,10,2013-09-07 04:18:00
11:00 PM,59.0,57.2,94,30.14,8.0,North,16.1,24.2,N/A,Rain,Light Rain,360,2013-09-07 05:00:00